カタログに戻る

STARLINK-3158

運用中通信VLEO
NORAD 49432·PAYLOAD·🇺🇸 United States

打ち上げ Nov 13, 2021 から Cape Canaveral Space Force Station

Loading…

次のパス (今後24時間)

TLE

最新Source: CelesTrak SupGP

元期: Sep 14, 2026, 20:10 UTC

1 49432C 21104AA  26257.84076389 -.00006831  00000+0 -21969-3 0  2573
2 49432  53.1580  78.2055 0001344  82.7937  30.6976 15.31702108    11

AllMySatでSTARLINK-3158をリアルタイム追跡

Download on the App Store